Location: Briis
(48.6240°N, 2.1211°E)
Time: 01:28:32
(UTC+00:00)

Cosmos 990 Rocket - Pass Details

Date: 25 September 2020
Orbit: 746 x 769 km, 74.0° (Epoch: 23 October)

Event Time Altitude Azimuth Distance (km) Brightness Sun altitude
Rises 03:42:40 0° 331° (NNW) 3,222 7.2 -20.2°
Reaches altitude 10° 03:45:09 10° 324° (NW) 2,296 6.3 -19.8°
Maximum altitude 03:49:57 39° 256° (WSW) 1,130 4.3 -19.1°
Drops below altitude 10° 03:54:45 10° 189° (S) 2,294 6.2 -18.3°
Sets 03:57:15 0° 182° (S) 3,218 7.0 -17.9°
